User: anonymous   Login
Location: Unspecified
(0.0000°N, 0.0000°E)
Time: 23:00:44
(UTC+00:00)
Language:

STARLINK-36500 - Orbit

View from above orbital plane
View from above orbital plane
View from above satellite
View from above satellite

Ground track
Ground track

The orbit is defined by the following mean orbital elements,

1 67320U          26145.58023690 +.00000000 +00000-0 +60014-3 0 00006
2 67320  42.9985 251.4344 0001326 277.9230  82.1472 15.27602603    08
Epoch (UTC): 25 May 2026 13:55:32
Eccentricity: 0.0001326
inclination: 42.9985°
perigee height: 482 km
apogee height: 484 km
right ascension of ascending node: 251.4344°
argument of perigee: 277.9230°
revolutions per day: 15.27602603
mean anomaly at epoch: 82.1472°

The dashed part of the orbit path shows where the satellite is in the earth's shadow,  

DLR